Stations météo

réclame
Mon MeteoGroup
Asturias/Aviles, Espagne (8011): Température de l'air & dewpoint: 08.08.2018 19:00:00 - 14.08.2018 19:00:00 (CEST)Asturias/Aviles, Espagne (8011): Vitesse du vent: 08.08.2018 19:00:00 - 14.08.2018 19:00:00 (CEST)Asturias/Aviles, Espagne (8011): Direction du vent: 08.08.2018 19:00:00 - 14.08.2018 19:00:00 (CEST)Asturias/Aviles, Espagne (8011): reduced air pressure: 08.08.2018 19:00:00 - 14.08.2018 19:00:00 (CEST)Asturias/Aviles, Espagne (8011): visibility: 08.08.2018 19:00:00 - 14.08.2018 19:00:00 (CEST)
Date & Time tt [°C] td [°C] ff [km/h] ff [knt] dd ppp [hPa] vv [km]
14.08.2018 19:00:00 22,4 17,0 15 8 E 1022,0 -
14.08.2018 18:00:00 23,2 16,6 11 6 E 1022,1 -
14.08.2018 17:00:00 23,9 17,6 9 5 E 1022,3 30
14.08.2018 16:00:00 23,2 17,1 11 6 ENE 1022,7 -
14.08.2018 15:00:00 23,6 17,2 9 5 ENE 1022,5 -
14.08.2018 14:00:00 22,5 16,6 9 5 ENE 1022,9 35
14.08.2018 13:00:00 23,4 17,3 8 4 NE 1023,0 -
14.08.2018 12:00:00 22,1 15,6 5 3 ENE 1022,9 -
14.08.2018 11:00:00 22,3 16,8 5 3 NE 1022,7 28
14.08.2018 10:00:00 21,1 17,3 4 2 SSE 1022,5 -
14.08.2018 09:00:00 18,2 16,7 5 3 SW 1022,3 -
14.08.2018 08:00:00 17,1 16,0 8 4 SSW 1022,2 20
14.08.2018 07:00:00 16,9 15,9 0 0 N 1021,7 -
14.08.2018 06:00:00 16,9 15,9 8 4 SSW 1021,4 -
14.08.2018 05:00:00 16,5 15,7 2 1 S 1021,4 -
14.08.2018 04:00:00 16,4 15,4 8 4 SW 1021,3 -
14.08.2018 03:00:00 16,7 15,9 4 2 SSW 1021,2 -
14.08.2018 02:00:00 17,3 16,5 8 4 SW 1021,3 15
14.08.2018 01:00:00 17,9 16,9 11 6 W 1021,0 -
14.08.2018 00:00:00 18,1 17,3 13 7 W 1021,0 -
13.08.2018 23:00:00 18,4 17,2 9 5 W 1021,0 25
13.08.2018 22:00:00 18,3 16,8 15 8 W 1020,3 -
13.08.2018 21:00:00 18,9 16,7 21 11 WNW 1019,6 -
13.08.2018 20:00:00 20,6 17,2 22 12 WNW 1019,1 30
13.08.2018 19:00:00 21,5 17,7 22 12 WNW 1019,0 -
13.08.2018 18:00:00 21,4 18,0 16 9 NW 1018,7 -
13.08.2018 17:00:00 22,3 18,2 24 13 WNW 1018,5 30
13.08.2018 16:00:00 22,0 17,7 18 10 WNW 1018,3 -
13.08.2018 15:00:00 22,6 17,7 21 11 WNW 1018,1 -
13.08.2018 14:00:00 22,1 17,6 22 12 WNW 1017,9 35
13.08.2018 13:00:00 22,6 17,4 18 10 WNW 1018,0 -
13.08.2018 12:00:00 22,0 17,4 15 8 WNW 1017,8 -
13.08.2018 11:00:00 22,4 16,2 13 7 WNW 1017,2 30
13.08.2018 10:00:00 20,3 15,6 11 6 SW 1017,0 -
13.08.2018 09:00:00 18,0 15,4 11 6 WSW 1017,0 -
13.08.2018 08:00:00 17,4 15,2 11 6 WSW 1016,3 30
13.08.2018 07:00:00 16,9 15,4 11 6 WSW 1015,9 -
13.08.2018 06:00:00 17,1 14,6 15 8 WSW 1016,0 -
13.08.2018 05:00:00 17,2 15,2 13 7 WNW 1015,8 -
13.08.2018 04:00:00 17,7 15,1 18 10 W 1015,8 -
13.08.2018 03:00:00 18,1 16,1 16 9 W 1016,0 -
13.08.2018 02:00:00 18,0 16,2 18 10 WNW 1016,4 9
13.08.2018 01:00:00 18,2 17,0 11 6 WNW 1016,7 -
13.08.2018 00:00:00 18,0 17,2 16 9 WNW 1016,6 7
12.08.2018 23:00:00 18,1 17,6 9 5 W 1016,7 6
12.08.2018 22:00:00 18,1 17,9 18 10 W 1016,1 -
12.08.2018 21:00:00 18,8 18,5 24 13 WNW 1015,5 -
12.08.2018 20:00:00 19,4 18,6 24 13 W 1015,1 7
12.08.2018 19:00:00 20,2 19,2 13 7 WNW 1015,0 -
12.08.2018 18:00:00 22,3 19,1 11 6 NW 1014,9 -
12.08.2018 17:00:00 24,7 18,9 11 6 NW 1014,3 10
12.08.2018 16:00:00 24,5 19,1 11 6 NW 1014,8 -
12.08.2018 15:00:00 23,1 18,6 13 7 WNW 1015,3 -
12.08.2018 14:00:00 21,8 17,3 5 3 WNW 1015,5 25
12.08.2018 13:00:00 21,4 17,5 5 3 NNW 1015,7 -
12.08.2018 12:00:00 22,8 19,4 5 3 WNW 1015,7 -
12.08.2018 11:00:00 21,3 18,7 8 4 SSW 1015,6 25
12.08.2018 10:00:00 18,6 17,4 8 4 SW 1015,8 -
12.08.2018 09:00:00 17,6 17,0 4 2 WSW 1016,0 -
12.08.2018 08:00:00 15,5 15,2 8 4 WSW 1016,2 15
12.08.2018 07:00:00 15,5 15,1 8 4 WSW 1016,2 -
12.08.2018 06:00:00 16,0 15,4 9 5 SW 1016,4 -
12.08.2018 05:00:00 16,1 15,6 8 4 WSW 1016,7 -
12.08.2018 04:00:00 16,4 15,8 8 4 SW 1017,2 -
12.08.2018 03:00:00 16,6 16,0 8 4 SSW 1017,7 -
12.08.2018 02:00:00 17,5 16,7 8 4 W 1018,4 15
12.08.2018 01:00:00 17,6 17,0 4 2 SW 1019,0 -
12.08.2018 00:00:00 17,6 16,6 4 2 W 1019,6 -
11.08.2018 23:00:00 17,8 16,3 5 3 SE 1019,7 20
11.08.2018 22:00:00 19,3 16,9 8 4 E 1019,5 -
11.08.2018 21:00:00 21,9 17,5 8 4 ENE 1019,3 -
11.08.2018 20:00:00 23,5 17,9 9 5 E 1019,2 25
11.08.2018 19:00:00 23,8 17,8 11 6 E 1019,4 -
11.08.2018 18:00:00 24,3 18,0 13 7 E 1019,5 -
11.08.2018 17:00:00 24,3 18,0 11 6 E 1020,0 20
11.08.2018 16:00:00 24,1 17,9 15 8 E 1020,5 -
11.08.2018 15:00:00 24,3 17,3 15 8 E 1020,7 -
11.08.2018 14:00:00 24,3 17,6 13 7 ENE 1021,0 12
11.08.2018 13:00:00 24,1 17,0 11 6 E 1021,5 -
11.08.2018 12:00:00 23,2 16,4 11 6 ESE 1022,2 -
11.08.2018 11:00:00 21,7 17,4 8 4 ENE 1022,6 12
11.08.2018 10:00:00 18,9 16,5 9 5 SSW 1023,1 -
11.08.2018 09:00:00 16,8 15,8 4 2 SSW 1023,2 -
11.08.2018 08:00:00 15,0 14,5 9 5 SSW 1023,2 10
11.08.2018 07:00:00 14,8 14,3 11 6 SSW 1023,2 -
11.08.2018 06:00:00 14,8 14,2 4 2 S 1023,3 -
11.08.2018 05:00:00 14,8 14,0 0 0 N 1023,6 -
11.08.2018 04:00:00 15,1 14,1 8 4 S 1023,9 -
11.08.2018 03:00:00 15,8 14,7 9 5 SSW 1024,4 -
11.08.2018 02:00:00 15,6 14,5 8 4 SSE 1025,0 20
11.08.2018 01:00:00 15,7 14,4 13 7 SE 1025,2 -
11.08.2018 00:00:00 16,7 14,9 15 8 ESE 1025,3 -
10.08.2018 23:00:00 17,8 15,2 11 6 ESE 1025,3 20
10.08.2018 22:00:00 18,5 14,8 15 8 ESE 1024,8 -
10.08.2018 21:00:00 19,8 14,6 13 7 E 1024,5 -
10.08.2018 20:00:00 21,3 14,8 11 6 E 1024,5 35
10.08.2018 19:00:00 22,1 15,2 13 7 E 1024,5 -
10.08.2018 18:00:00 22,8 15,1 11 6 ENE 1024,5 -
10.08.2018 17:00:00 22,7 14,9 8 4 ENE 1024,7 40
10.08.2018 16:00:00 22,6 14,8 9 5 ENE 1025,1 -
10.08.2018 15:00:00 22,5 14,9 11 6 E 1025,1 25
10.08.2018 14:00:00 21,9 14,9 9 5 NNE 1025,2 25
10.08.2018 13:00:00 21,3 15,6 9 5 NNE 1025,1 -
10.08.2018 12:00:00 20,7 15,1 8 4 NNE 1025,0 -
10.08.2018 11:00:00 19,3 14,5 9 5 SSW 1025,1 25
10.08.2018 10:00:00 16,1 14,0 11 6 SSW 1025,5 -
10.08.2018 09:00:00 13,8 12,7 15 8 SSW 1025,5 -
10.08.2018 08:00:00 12,6 11,9 13 7 SSW 1025,4 25
10.08.2018 07:00:00 12,4 11,7 13 7 SSW 1025,3 -
10.08.2018 06:00:00 12,6 11,8 13 7 SSW 1025,0 -
10.08.2018 05:00:00 13,0 11,9 9 5 SSW 1025,3 -
10.08.2018 04:00:00 13,2 11,8 9 5 SSW 1025,4 -
10.08.2018 03:00:00 13,9 12,6 9 5 SSW 1025,5 -
10.08.2018 02:00:00 14,1 12,8 11 6 SSW 1025,9 20
10.08.2018 01:00:00 13,9 12,3 4 2 S 1026,0 -
10.08.2018 00:00:00 14,7 12,6 0 0 N 1026,1 -
09.08.2018 23:00:00 15,1 12,2 0 0 N 1025,8 20
09.08.2018 22:00:00 16,4 13,1 0 0 N 1025,0 -
09.08.2018 21:00:00 18,0 13,3 2 1 N 1024,4 -
09.08.2018 20:00:00 19,9 13,8 2 1 NE 1024,2 30
09.08.2018 19:00:00 21,8 13,7 8 4 NNW 1024,0 -
09.08.2018 18:00:00 21,4 13,4 9 5 NNW 1023,8 -
09.08.2018 17:00:00 21,8 13,7 9 5 NNW 1023,9 30
09.08.2018 16:00:00 20,6 14,1 9 5 NW 1024,0 -
09.08.2018 15:00:00 19,7 13,4 11 6 NW 1023,9 -
09.08.2018 14:00:00 19,9 14,1 9 5 NW 1023,4 25
09.08.2018 13:00:00 18,2 15,6 15 8 WNW 1022,9 -
09.08.2018 12:00:00 16,4 15,1 15 8 W 1022,6 -
09.08.2018 11:00:00 17,6 15,4 13 7 W 1021,7 12
09.08.2018 10:00:00 17,4 15,0 13 7 SW 1021,0 -
09.08.2018 09:00:00 15,1 14,6 11 6 SW 1020,2 -
09.08.2018 08:00:00 14,4 14,1 11 6 WSW 1019,6 8
09.08.2018 07:00:00 14,1 13,8 13 7 WSW 1018,8 -
09.08.2018 06:00:00 14,1 13,8 11 6 WSW 1018,3 -
09.08.2018 05:00:00 13,9 13,6 9 5 WSW 1018,0 -
09.08.2018 04:00:00 13,9 13,6 11 6 WSW 1017,6 -
09.08.2018 03:00:00 14,1 13,8 13 7 SW 1017,3 -
09.08.2018 02:00:00 14,2 13,7 9 5 S 1017,3 8
09.08.2018 01:00:00 14,7 14,2 11 6 S 1017,6 -
09.08.2018 00:00:00 14,8 14,5 8 4 SSW 1018,5 -
08.08.2018 23:00:00 15,5 15,0 18 10 WNW 1017,7 7
08.08.2018 22:00:00 15,6 15,3 21 11 NW 1016,5 -
08.08.2018 21:00:00 19,7 18,2 9 5 WNW 1014,1 -
08.08.2018 20:00:00 19,9 17,9 0 0 N 1013,9 25
08.08.2018 19:00:00 21,0 18,0 4 2 NE 1013,5 -

tt = Température de l'air
td = dewpoint
ff = Vitesse du vent
dd = Direction du vent
ppp = reduced air pressure
vv = visibility

stations d'obs. à proximité